This demonstration page uses our WeatherBlox Daily Observations layout. Learn more.

Left ArrowRight Arrow

39.92423, -83.80882

Hourly Observations for February 24, 2022

Temp ( °F °C ) Dew Point ( °F °C ) Humidity (%) Winds ( mph kmh ) Pressure ( in mb ) Visibility ( mi km ) Precip ( " mm )
12:48 am 00:48 Cloudy 27 -3 21 -6 80 80 ENE 10 17 30.42 1030 10 16 0.00 0.00
12:56 am 00:56 Cloudy 26 -3.3 23 -5 88 88 ENE 9 15 30.40 1030 10 16 0.00 0.00
1:56 am 01:56 Cloudy 26 -3.3 23 -5 88 88 ENE 10 17 30.38 1029 10 16 0.00 0.00
2:16 am 02:16 Cloudy 27 -3 23 -5 86 86 ENE 12 19 30.40 1029 10 16 0.00 0.00
2:56 am 02:56 Cloudy 27 -2.8 23 -5 85 85 ENE 12 19 30.36 1028 10 16 0.00 0.00
3:56 am 03:56 Cloudy 27 -2.8 24 -4.4 89 89 NE 8 13 30.36 1028 10 16 0.00 0.00
4:56 am 04:56 Cloudy 27 -2.8 24 -4.4 89 89 NE 14 22 30.37 1028 10 16 0.00 0.00
5:56 am 05:56 Cloudy with Light Snow 26 -3.3 25 -3.9 96 96 NE 13 20 30.37 1028 9 14 0.00 0.00
6:56 am 06:56 Cloudy 26 -3.3 24 -4.4 92 92 ENE 15 24 30.35 1028 10 16 0.00 0.00
7:41 am 07:41 Cloudy 27 -3 25 -4 93 93 ENE 14 22 30.38 1029 10 16 0.00 0.00
7:54 am 07:54 Cloudy 27 -3 25 -4 93 93 NE 15 24 30.38 1029 10 16 0.00 0.00
7:56 am 07:56 Cloudy 26 -3.3 25 -3.9 96 96 NE 15 24 30.35 1028 10 16 0.00 0.00
8:56 am 08:56 Cloudy 27 -2.8 25 -3.9 92 92 E 13 20 30.38 1029 10 16 0.00 0.00
9:20 am 09:20 Cloudy 28 -2 25 -4 86 86 ENE 14 22 30.39 1029 10 16 0.00 0.00
9:56 am 09:56 Cloudy 29 -1.7 26 -3.3 89 89 ENE 15 24 30.37 1029 10 16 0.00 0.00
10:56 am 10:56 Cloudy 30 -1.1 27 -2.8 88 88 ENE 13 20 30.35 1028 10 16 0.00 0.00
11:14 am 11:14 Cloudy 30 -1 27 -3 86 86 ENE 12 19 30.37 1028 10 16 0.00 0.00
11:56 am 11:56 Cloudy 31 -0.6 27 -2.8 85 85 ENE 14 22 30.34 1027 10 16 0.00 0.00
12:56 pm 12:56 Cloudy 32 0 27 -2.8 82 82 E 15 24 30.30 1026 10 16 0.00 0.00
1:56 pm 13:56 Cloudy 33 0.6 27 -2.8 78 78 E 12 19 30.26 1025 10 16 0.00 0.00
2:56 pm 14:56 Cloudy 33 0.6 27 -2.8 78 78 ENE 12 19 30.24 1024 10 16 0.00 0.00
3:56 pm 15:56 Cloudy 34 1.1 28 -2.2 79 79 ENE 17 28 30.15 1021 10 16 0.00 0.00
4:07 pm 16:07 Cloudy 34 1 27 -3 75 75 E 17 28 30.17 1022 10 16 0.00 0.00
4:20 pm 16:20 Cloudy 34 1 27 -3 75 75 E 14 22 30.19 1022 10 16 0.00 0.00
4:56 pm 16:56 Cloudy with Light Rain 33 0.6 29 -1.7 85 85 ENE 10 17 30.19 1022 9 14 0.00 0.00
5:56 pm 17:56 Cloudy with Light Snow 31 -0.6 31 -0.6 100 100 NE 10 17 30.20 1023 3 5 0.00 0.00
6:33 pm 18:33 Cloudy with Light Wintry Mix 30 -1 N/A N/A E 16 26 30.13 1020 7 11 0.00 0.00
6:56 pm 18:56 Cloudy with Light Wintry Mix 30 -1 N/A N/A E 13 20 30.13 1020 7 11 0.00 0.00
7:33 pm 19:33 Cloudy with Light Snow 32 0 N/A N/A E 10 17 30.14 1021 5 8 0.00 0.00
7:56 pm 19:56 Cloudy with Light Snow 32 0 N/A N/A E 15 24 30.10 1019 6 10 0.00 0.00
8:56 pm 20:56 Cloudy with Light Snow 32 0 N/A N/A SE 8 13 30.13 1020 4 6 0.00 0.00
9:56 pm 21:56 Cloudy with Light Snow 32 0 N/A N/A E 7 11 30.07 1018 4 6 0.00 0.00
10:06 pm 22:06 Cloudy with Light Snow 32 0 N/A N/A ENE 9 15 30.06 1018 4 6 0.00 0.00
10:56 pm 22:56 Cloudy with Light Snow 32 0 N/A N/A Calm 30.05 1018 4 6 0.00 0.00
11:56 pm 23:56 Cloudy with Light Wintry Mix 32 0 N/A N/A ENE 5 7 30.03 1017 8 13 0.00 0.00

Powered by AerisWeather